VIASAT-3

Last updated on Wed Oct 29 2025 00:02:51 GMT+0000 (Coordinated Universal Time)

1 56370U 23060A 25300.46008010 -.00000175 00000+0 00000+0 0 9993 2 56370 0.0239 279.7897 0000041 260.3140 292.6837 1.00271422 9103
UTC large
Height (km)
Speed (km/s)
/
Latitude / Longitude
Inclination (degrees)
Orbital Period (minutes)
Azimuth
Elevation
Range (km)
Doppler Factor

Next 0 passes for location: London (51.5072 / 0.1276)

Sorry there are no passes over London.